EHI
0 0 0 0 0 0 0 0 0 0 0 0 0 0 0 0 0 0 0 0 0 1 2 3 4 5 4 4 3 3 3 3 3 2 1 1 1 0 0 1 1 1 0
0 0 0 0 0 0 0 0 0 0 0 0 0 0 0 0 0 0 0 0 0 0 1 1 2 3 4 3 3 2 2 3 3 2 2 2 1 0 0 0 0 0 0
0 0 0 0 0 0 0 0 0 0 0 0 0 0 0 0 0 0 0 0 0 0 0 0 0 1 2 2 1 1 1 1 2 2 1 1 1 0 0 0 0 0 0
0 0 0 0 0 0 0 0 0 0 0 0 0 0 0 0 0 0 0 0 0 0 0 0 0 0 0 0 0 0 0 0 1 1 0 0 0 0 0 0 0 0 0
0 0 0 0 0 0 0 0 0 0 0 0 0 0 0 0 0 0 0 0 0 0 0 0 0 0 0 0 0 0 0 0 0 0 0 0 0 0 0 0 0 0 0
0 0 0 0 0 0 0 0 0 0 0 0 0 0 0 0 0 0 0 0 0 0 0 0 0 0 0 0 0 0 0 0 0 0 0 0 0 0 0 0 0 0 0
0 0 0 0 0 0 0 0 0 0 0 0 0 0 0 0 0 0 0 0 0 0 0 0 0 0 0 0 0 0 0 0 0 0 0 0 0 0 0 0 0 0 0
0 0 0 0 0 0 0 0 0 0 0 0 0 0 0 0 0 0 0 0 0 0 0 0 0 0 0 0 0 0 0 0 0 0 0 0 0 0 0 0 0 0 0
0 0 0 0 0 0 0 0 0 0 0 0 0 0 0 0 0 0 0 0 0 0 0 0 0 0 0 0 0 0 0 0 0 0 0 0 0 0 0 0 0 0 0
0 0 0 0 0 0 0 0 0 0 0 0 0 0 0 0 0 0 0 0 0 0 0 0 0 0 0 0 0 0 0 0 0 0 0 0 0 0 0 0 0 0 0
0 0 0 0 0 0 0 0 0 0 0 0 0 0 0 0 0 0 0 0 0 0 0 0 0 0 0 0 0 0 0 0 0 0 0 0 0 0 0 0 0 0 0
0 0 0 0 0 0 0 0 0 0 0 0 0 0 0 0 0 0 0 0 0 0 0 0 0 0 0 0 0 0 0 0 0 0 0 0 0 0 0 0 0 0 0
0 0 0 0 0 0 0 0 0 0 0 0 0 0 0 0 0 0 0 0 0 0 0 0 0 0 0 0 0 0 0 1 0 0 0 0 0 0 0 0 0 0 0
0 0 0 0 0 0 0 0 0 0 0 0 0 0 0 0 0 0 0 0 0 0 0 0 0 0 0 0 0 0 0 0 0 0 0 0 0 0 0 0 0 0 0
0 0 0 0 0 0 0 0 0 0 0 0 0 0 0 0 0 0 0 0 0 0 0 0 0 0 0 0 0 0 0 0 0 0 0 0 0 0 0 0 0 0 0
0 0 0 0 0 0 0 0 0 0 0 0 0 0 0 0 0 0 0 0 0 0 0 0 0 0 0 0 0 0 0 0 0 0 0 0 0 0 0 0 0 0 0
0 0 0 0 0 0 0 0 0 0 0 0 0 0 0 0 0 0 0 0 0 0 0 0 0 0 0 0 0 0 0 0 0 0 0 0 0 0 0 0 0 0 0
0 0 0 0 0 0 0 0 0 0 0 0 0 0 0 0 0 0 0 0 0 0 0 0 0 0 0 0 0 0 0 0 0 0 0 0 0 1 0 0 0 0 0
0 0 0 0 0 0 0 0 0 0 0 0 0 0 0 0 0 0 0 0 0 0 0 0 0 0 0 0 0 0 0 0 0 0 0 0 0 0 0 0 0 0 0
0 0 0 0 0 0 0 0 0 0 0 0 0 0 0 0 0 0 0 0 0 0 0 0 0 0 0 0 0 0 0 0 0 0 0 0 0 0 0 0 0 0 0
0 0 0 0 0 0 0 0 0 0 0 0 0 0 0 0 0 0 0 0 0 0 0 0 0 0 0 0 0 0 0 0 0 0 0 0 0 0 0 0 0 0 0
0 0 0 0 0 0 0 0 0 0 0 0 0 0 0 0 0 0 0 0 0 0 0 0 0 0 0 0 0 0 0 0 0 0 0 0 0 0 0 0 0 0 0
0 0 0 0 0 0 0 0 0 0 0 0 0 0 0 0 0 0 0 0 0 0 0 0 0 0 0 0 0 0 0 0 0 0 0 0 0 0 0 0 0 0 0
0 0 0 0 0 0 0 0 0 0 0 0 0 0 0 0 0 0 0 0 0 0 0 0 0 0 0 0 0 0 0 0 0 0 0 0 0 0 0 0 0 0 0
0 0 0 0 0 0 0 0 0 0 0 0 0 0 0 0 0 0 0 0 0 0 0 0 0 0 0 0 0 0 0 0 0 0 0 0 0 0 0 0 0 0 0
0 0 0 0 0 0 0 0 0 0 0 0 0 0 0 0 0 0 0 0 0 0 0 0 0 0 0 0 0 0 0 0 0 0 0 0 0 0 0 0 0 0 0
Wind_Speed
2 2 2 3 3 2 3 3 3 4 4 5 5 5 5 4 4 4 3 8 9 9 9 9 8 8 8 7 7 7 8 8 7 7 7 7 7 8 7 7 7 7 8
2 2 3 3 3 3 3 3 4 4 4 4 5 5 4 4 4 4 4 5 9 9 9 9 8 8 8 7 7 7 7 7 7 8 8 8 8 8 7 7 8 9 9
2 3 3 3 2 3 4 4 4 4 4 4 5 5 4 4 4 5 4 4 4 8 9 9 9 8 8 8 7 7 7 7 7 7 7 7 7 7 7 7 8 8 8
3 3 3 2 2 3 3 4 3 4 4 4 4 4 3 4 4 4 4 4 4 4 6 9 9 9 8 7 7 7 7 7 7 7 7 7 7 7 7 7 8 8 8
3 3 3 2 3 3 3 3 3 3 3 3 3 4 3 3 4 4 4 5 4 4 4 6 9 9 8 8 7 7 7 7 7 7 8 8 8 8 8 7 7 7 7
3 3 3 3 3 3 3 3 3 3 3 3 4 4 3 3 3 4 4 4 4 4 4 4 4 6 8 8 8 7 7 7 7 7 8 8 7 8 8 7 6 7 7
3 3 3 3 3 3 3 3 3 4 3 2 3 3 3 4 4 3 3 3 4 4 4 4 3 3 4 8 8 7 6 6 6 7 7 7 7 7 7 7 7 7 8
2 3 3 2 2 3 3 3 3 2 1 2 2 2 2 3 4 4 3 3 4 3 4 4 4 4 3 3 5 6 6 6 6 6 5 6 6 6 7 8 8 9 10
1 2 2 2 2 2 2 2 2 3 2 1 1 2 2 1 1 3 3 3 3 3 3 3 4 4 3 3 3 4 6 6 5 5 5 5 5 6 7 8 9 9 9
1 1 2 2 2 2 2 1 2 2 2 1 1 2 1 2 2 1 2 2 3 3 3 3 3 3 3 3 3 5 6 5 4 4 5 5 5 5 6 7 8 8 7
1 1 2 2 2 2 2 2 2 2 2 2 1 1 2 2 1 2 0 2 2 2 2 2 2 2 3 2 2 4 6 6 5 5 5 5 4 5 6 7 7 7 7
1 0 1 2 2 2 2 2 2 2 1 1 1 2 2 2 1 2 1 1 1 2 2 2 1 2 2 2 3 5 5 5 5 5 5 5 5 5 6 6 6 5 5
1 1 1 2 2 2 2 2 2 2 2 2 2 1 2 2 2 2 2 1 0 1 2 1 1 1 2 2 2 4 5 5 5 5 5 5 5 5 5 4 4 4 4
3 2 2 2 2 2 2 2 2 2 2 1 2 2 1 1 2 3 3 3 1 1 1 2 1 1 1 1 2 3 2 4 4 4 4 4 4 4 4 3 4 3 3
2 2 3 2 2 2 2 2 2 2 2 1 1 2 1 1 2 2 2 3 3 1 2 2 1 1 1 1 2 2 1 3 3 3 3 2 2 3 3 2 2 3 3
2 2 2 2 2 2 2 2 2 2 2 1 1 2 1 1 1 1 2 1 2 3 2 1 1 1 1 1 1 1 1 2 3 3 2 2 2 2 2 1 1 1 1
3 3 3 3 3 2 2 3 2 2 2 1 1 2 1 1 1 1 1 1 1 2 2 1 0 1 0 1 1 1 1 1 1 2 2 1 1 0 0 0 1 1 1
3 3 3 3 3 3 3 3 3 3 3 2 2 1 1 1 1 1 1 2 1 2 2 2 1 0 0 1 1 1 1 1 1 2 2 2 1 1 0 1 1 1 1
2 2 3 3 3 3 3 4 4 3 3 3 2 2 2 2 2 1 2 2 1 1 2 2 1 0 0 1 1 1 1 2 1 2 2 2 1 1 1 1 1 1 1
3 3 3 3 3 3 3 3 3 3 3 2 2 2 3 3 3 3 2 2 2 2 2 2 1 0 0 1 0 0 1 1 2 2 2 2 2 2 2 2 2 2 2
2 3 2 2 2 2 3 4 4 4 3 3 2 2 3 4 5 4 3 3 3 2 2 2 1 0 1 1 1 1 1 1 2 1 1 1 1 1 2 3 3 3 3
2 2 2 2 2 3 4 5 5 4 4 4 3 3 3 3 4 5 5 5 6 4 4 3 2 2 3 3 1 2 1 0 2 1 0 2 1 2 2 2 3 4 4
2 2 2 2 3 3 4 4 6 4 4 4 4 3 2 2 3 2 4 4 5 6 7 5 4 5 4 5 4 3 3 3 3 2 1 2 1 2 3 3 5 4 4
2 2 2 3 2 3 4 4 4 3 3 3 4 4 4 3 3 3 3 2 3 3 5 4 5 6 5 4 5 4 3 2 1 1 2 2 2 2 3 3 5 4 4
2 2 2 2 3 3 3 4 3 2 2 2 3 3 3 4 5 4 3 3 3 3 4 5 5 5 5 5 4 3 2 1 2 2 2 2 2 2 2 3 3 4 4
2 2 1 1 2 3 3 4 5 2 2 1 1 2 4 4 5 4 4 4 4 4 2 1 2 3 3 4 6 5 5 3 2 2 3 2 2 1 2 2 2 3 3
Wind_Direction
63 57 54 51 47 63 80 81 78 73 67 61 61 64 58 51 44 36 24 42 49 54 62 66 69 73 75 77 79 80 77 71 65 62 62 62 62 60 58 57 58 63 62
79 74 63 55 49 57 72 84 87 81 70 64 58 56 53 48 45 40 31 30 37 45 53 58 61 67 70 72 76 77 76 71 70 67 64 61 60 59 59 60 61 63 61
81 86 78 64 57 66 73 79 77 76 76 67 56 49 48 47 47 39 34 29 22 33 42 49 51 55 63 70 73 75 75 71 70 69 67 65 63 61 61 62 61 62 62
78 88 85 77 74 77 78 79 75 74 67 65 57 43 43 46 47 43 38 32 27 23 28 39 42 44 51 61 68 73 74 73 72 69 66 63 61 59 60 61 61 62 63
75 88 88 84 84 83 77 84 76 84 82 70 64 49 40 42 37 43 39 32 31 28 23 25 31 35 41 45 57 67 74 73 72 68 65 61 56 57 59 59 64 64 66
77 85 85 82 84 85 77 81 85 76 82 80 71 54 37 38 38 35 29 29 28 28 27 26 22 21 31 39 47 55 63 67 69 66 65 61 56 58 58 58 62 69 70
86 89 88 85 85 92 99 101 98 86 73 77 78 50 27 34 42 32 27 30 26 22 28 30 28 25 18 27 34 42 51 57 65 67 65 62 60 60 56 55 68 73 73
88 103 103 101 96 99 94 96 100 99 70 47 92 84 30 7 15 25 26 34 23 18 28 33 33 29 19 12 18 31 39 45 56 65 67 63 63 63 58 61 71 77 77
85 100 118 116 113 114 124 122 113 115 114 42 65 123 127 191 333 353 18 27 22 22 16 20 32 28 21 16 6 20 35 35 45 53 59 61 63 65 68 70 74 78 78
80 105 130 128 128 124 134 145 117 118 126 118 49 55 112 147 140 353 346 4 18 25 12 18 23 21 19 16 17 27 33 30 40 45 48 50 50 66 80 83 82 82 80
49 130 146 138 138 137 147 140 120 119 127 138 137 120 89 66 94 136 287 334 353 359 6 9 12 7 12 14 10 35 38 34 32 34 38 36 45 70 90 90 87 85 85
338 214 149 145 151 152 163 164 150 143 141 134 138 142 147 146 159 142 160 276 309 318 349 3 9 1 7 8 11 37 39 36 32 33 32 33 50 73 90 89 86 85 89
243 243 187 173 175 182 176 159 153 168 164 157 166 173 171 173 153 144 137 158 296 310 335 341 339 353 1 9 5 29 37 35 37 37 34 33 40 59 81 84 80 77 81
220 210 199 197 195 186 177 163 163 185 169 178 185 177 170 181 163 157 154 147 122 324 328 300 325 337 344 352 354 14 19 30 38 38 36 34 35 54 66 74 75 74 74
218 200 190 194 200 190 182 168 172 189 167 180 193 186 178 188 175 170 157 155 151 178 263 273 296 319 331 352 350 9 352 15 38 38 32 33 49 60 58 64 68 68 73
213 189 189 188 192 188 183 171 169 176 157 179 176 160 161 178 171 162 164 160 154 163 212 246 241 303 332 351 1 17 345 360 27 28 24 38 58 73 70 54 47 48 56
202 195 189 184 186 188 184 173 177 167 162 177 169 157 181 155 149 159 149 145 153 151 184 273 314 338 8 0 352 5 7 2 11 15 16 5 359 115 165 78 21 356 333
205 200 189 186 194 193 183 181 187 178 178 187 192 167 203 145 141 146 149 158 172 166 163 204 271 321 319 325 347 354 2 10 9 352 349 348 340 307 256 259 262 282 325
203 196 186 194 202 202 195 195 193 191 191 197 194 188 199 164 177 173 167 171 177 160 152 166 208 283 316 354 10 358 5 360 347 322 316 320 324 334 311 259 241 235 238
188 195 200 205 207 207 208 202 193 194 195 200 204 204 196 190 198 188 181 181 163 147 144 146 152 223 271 326 77 323 338 353 339 342 344 327 319 309 294 271 251 241 240
203 196 193 210 208 204 210 203 197 195 193 201 218 226 220 211 209 200 190 182 162 155 153 158 172 180 252 227 230 224 240 322 321 326 344 323 312 307 292 278 263 252 243
218 205 202 203 213 222 215 205 193 192 193 197 214 232 234 225 226 219 214 195 180 172 181 183 198 211 234 227 207 204 199 224 280 273 200 292 285 277 281 267 272 269 255
207 211 222 205 219 232 217 203 196 185 192 203 210 218 228 221 212 211 219 212 209 206 195 187 195 216 218 214 191 198 203 208 232 232 185 268 273 270 275 277 269 260 262
202 210 221 219 222 242 221 212 200 188 199 216 216 212 215 232 219 195 189 201 221 226 221 209 208 220 219 205 194 193 193 191 277 258 180 232 260 265 285 278 271 259 260
202 205 211 216 217 241 220 207 187 174 198 231 232 219 212 225 235 204 181 203 236 260 251 223 222 229 222 207 177 138 144 153 260 260 201 207 250 284 291 277 278 272 264
203 196 208 226 222 231 227 211 186 173 192 226 254 249 235 233 239 214 194 194 221 244 226 220 233 240 231 218 201 191 185 184 206 249 211 196 236 263 291 278 277 278 269